SB KEPS @ AMSAT $ORB12253.O Orbital Elements 12253.OSCAR
HR AMSAT ORBITAL ELEMENTS FOR OSCAR SATELLITES FROM WA5QGD FORT WORTH,TX September 9, 2012 Send SUBSCRIBE KEPS/UNSUBSCRIBE KEPS to majordomo@amsat.org only BID: ORB12253.O TO ALL RADIO AMATEURS BT
Satellite: AO-07 Catalog number: 07530 Epoch time: 12253.49976697 Element set: 476 Inclination: 101.4092 deg RA of node: 247.4743 deg Eccentricity: 0.0011911 Arg of perigee: 115.5685 deg Mean anomaly: 244.6621 deg Mean motion: 12.53591225 rev/day Decay rate: -2.7e-07 rev/day^2 Epoch rev: 73061 Checksum: 299
Satellite: FO-29 Catalog number: 24278 Epoch time: 12252.82272023 Element set: 931 Inclination: 098.5866 deg RA of node: 342.5459 deg Eccentricity: 0.0350670 Arg of perigee: 172.6910 deg Mean anomaly: 187.9536 deg Mean motion: 13.52988430 rev/day Decay rate: 4.0e-08 rev/day^2 Epoch rev: 79326 Checksum: 331
Satellite: SO-33 Catalog number: 25509 Epoch time: 12252.13500487 Element set: 0317 Inclination: 031.4330 deg RA of node: 224.2669 deg Eccentricity: 0.0352566 Arg of perigee: 209.1884 deg Mean anomaly: 148.8523 deg Mean motion: 14.28810652 rev/day Decay rate: 3.12e-06 rev/day^2 Epoch rev: 72452 Checksum: 286
Satellite: RS-22 Catalog number: 27939 Epoch time: 12252.23959553 Element set: 0705 Inclination: 097.8063 deg RA of node: 088.7802 deg Eccentricity: 0.0013762 Arg of perigee: 007.3017 deg Mean anomaly: 352.8362 deg Mean motion: 14.64121277 rev/day Decay rate: 7.93e-06 rev/day^2 Epoch rev: 47803 Checksum: 317
Satellite: VO-52 Catalog number: 28650 Epoch time: 12252.24474517 Element set: 0202 Inclination: 097.5913 deg RA of node: 279.1233 deg Eccentricity: 0.0027219 Arg of perigee: 126.3739 deg Mean anomaly: 234.0009 deg Mean motion: 14.83157574 rev/day Decay rate: 2.068e-05 rev/day^2 Epoch rev: 39728 Checksum: 308
Satellite: HO-68 Catalog number: 36122 Epoch time: 12253.35557228 Element set: 812 Inclination: 100.3522 deg RA of node: 310.9729 deg Eccentricity: 0.0007036 Arg of perigee: 277.8169 deg Mean anomaly: 082.2146 deg Mean motion: 13.16297865 rev/day Decay rate: -4.4e-07 rev/day^2 Epoch rev: 13146 Checksum: 295
/EX SB KEPS @ AMSAT $ORB12253.D Orbital Elements 12253.MICROS
HR AMSAT ORBITAL ELEMENTS FOR THE MICROSATS FROM WA5QGD FORT WORTH,TX September 9, 2012 Send SUBSCRIBE KEPS/UNSUBSCRIBE KEPS to majordomo@amsat.org only BID: ORB12253.D TO ALL RADIO AMATEURS BT
Satellite: UO-11 Catalog number: 14781 Epoch time: 12252.72432408 Element set: 970 Inclination: 097.9461 deg RA of node: 311.4787 deg Eccentricity: 0.0009953 Arg of perigee: 118.4776 deg Mean anomaly: 241.7435 deg Mean motion: 14.80550327 rev/day Decay rate: 8.18e-06 rev/day^2 Epoch rev: 53229 Checksum: 317
Satellite: AO-16 Catalog number: 20439 Epoch time: 12252.86052254 Element set: 0553 Inclination: 098.4357 deg RA of node: 193.9154 deg Eccentricity: 0.0010034 Arg of perigee: 273.9931 deg Mean anomaly: 086.0105 deg Mean motion: 14.32081667 rev/day Decay rate: 2.40e-06 rev/day^2 Epoch rev: 18197 Checksum: 292
Satellite: LO-19 Catalog number: 20442 Epoch time: 12252.87086840 Element set: 0497 Inclination: 098.4032 deg RA of node: 196.6421 deg Eccentricity: 0.0010966 Arg of perigee: 262.9847 deg Mean anomaly: 097.0082 deg Mean motion: 14.32298653 rev/day Decay rate: 3.04e-06 rev/day^2 Epoch rev: 18216 Checksum: 314
Satellite: AO-27 Catalog number: 22825 Epoch time: 12252.89085796 Element set: 192 Inclination: 098.5798 deg RA of node: 194.4260 deg Eccentricity: 0.0009107 Arg of perigee: 037.9191 deg Mean anomaly: 322.2624 deg Mean motion: 14.29483880 rev/day Decay rate: 1.56e-06 rev/day^2 Epoch rev: 98843 Checksum: 345
Satellite: IO-26 Catalog number: 22826 Epoch time: 12252.87566029 Element set: 0956 Inclination: 098.5751 deg RA of node: 194.7604 deg Eccentricity: 0.0009710 Arg of perigee: 031.3120 deg Mean anomaly: 328.8636 deg Mean motion: 14.29759649 rev/day Decay rate: 2.11e-06 rev/day^2 Epoch rev: 98856 Checksum: 338
Satellite: GO-32 Catalog number: 25397 Epoch time: 12251.92995817 Element set: 0870 Inclination: 098.3717 deg RA of node: 226.6048 deg Eccentricity: 0.0002232 Arg of perigee: 052.6466 deg Mean anomaly: 307.4920 deg Mean motion: 14.23290402 rev/day Decay rate: -2.9e-07 rev/day^2 Epoch rev: 73579 Checksum: 314
Satellite: NO-44 Catalog number: 26931 Epoch time: 12252.07165463 Element set: 0132 Inclination: 067.0502 deg RA of node: 266.7167 deg Eccentricity: 0.0006753 Arg of perigee: 252.8136 deg Mean anomaly: 107.2239 deg Mean motion: 14.29826018 rev/day Decay rate: -5.7e-07 rev/day^2 Epoch rev: 57109 Checksum: 293
Satellite: SO-50 Catalog number: 27607 Epoch time: 12251.89398949 Element set: 0859 Inclination: 064.5575 deg RA of node: 043.2868 deg Eccentricity: 0.0077941 Arg of perigee: 231.9194 deg Mean anomaly: 127.4872 deg Mean motion: 14.72495429 rev/day Decay rate: 1.283e-05 rev/day^2 Epoch rev: 52214 Checksum: 354
Satellite: CO-55 Catalog number: 27844 Epoch time: 12251.58344623 Element set: 0458 Inclination: 098.7046 deg RA of node: 258.7716 deg Eccentricity: 0.0009818 Arg of perigee: 351.6605 deg Mean anomaly: 008.4416 deg Mean motion: 14.21066613 rev/day Decay rate: 2.68e-06 rev/day^2 Epoch rev: 47659 Checksum: 330
Satellite: CO-57 Catalog number: 27848 Epoch time: 12252.02417530 Element set: 0409 Inclination: 098.7131 deg RA of node: 258.5776 deg Eccentricity: 0.0009665 Arg of perigee: 355.8515 deg Mean anomaly: 004.2587 deg Mean motion: 14.20813322 rev/day Decay rate: 2.49e-06 rev/day^2 Epoch rev: 47659 Checksum: 323
Satellite: AO-51 Catalog number: 28375 Epoch time: 12252.89225843 Element set: 360 Inclination: 098.1568 deg RA of node: 214.3173 deg Eccentricity: 0.0083525 Arg of perigee: 146.7741 deg Mean anomaly: 213.8789 deg Mean motion: 14.40981424 rev/day Decay rate: 1.03e-06 rev/day^2 Epoch rev: 43082 Checksum: 310
Satellite: CP3 Catalog number: 31129 Epoch time: 12251.57363735 Element set: 0259 Inclination: 097.8841 deg RA of node: 254.5141 deg Eccentricity: 0.0100035 Arg of perigee: 226.5485 deg Mean anomaly: 132.7345 deg Mean motion: 14.53194506 rev/day Decay rate: 6.35e-06 rev/day^2 Epoch rev: 28594 Checksum: 299
Satellite: CO-65 Catalog number: 32785 Epoch time: 12253.17551712 Element set: 410 Inclination: 097.7896 deg RA of node: 312.2108 deg Eccentricity: 0.0015683 Arg of perigee: 143.2077 deg Mean anomaly: 217.0249 deg Mean motion: 14.83170954 rev/day Decay rate: 1.489e-05 rev/day^2 Epoch rev: 23621 Checksum: 305
Satellite: PRISM Catalog number: 33493 Epoch time: 12252.25827197 Element set: 0052 Inclination: 098.1818 deg RA of node: 034.8742 deg Eccentricity: 0.0019207 Arg of perigee: 030.9315 deg Mean anomaly: 329.3025 deg Mean motion: 14.84284027 rev/day Decay rate: 4.483e-05 rev/day^2 Epoch rev: 19607 Checksum: 299
Satellite: SOHLA-1 Catalog number: 33496 Epoch time: 12252.89615183 Element set: 0845 Inclination: 098.1112 deg RA of node: 004.1118 deg Eccentricity: 0.0007183 Arg of perigee: 127.5553 deg Mean anomaly: 232.6299 deg Mean motion: 14.70037539 rev/day Decay rate: 7.37e-06 rev/day^2 Epoch rev: 19454 Checksum: 302
Satellite: SO-67 Catalog number: 35870 Epoch time: 12253.48771727 Element set: 310 Inclination: 097.2255 deg RA of node: 286.2722 deg Eccentricity: 0.0001074 Arg of perigee: 173.6001 deg Mean anomaly: 321.8608 deg Mean motion: 15.24466481 rev/day Decay rate: 6.421e-05 rev/day^2 Epoch rev: 16545 Checksum: 297
Satellite: TISAT-1 Catalog number: 36799 Epoch time: 12253.46266561 Element set: 329 Inclination: 098.0566 deg RA of node: 330.4021 deg Eccentricity: 0.0013451 Arg of perigee: 258.7413 deg Mean anomaly: 101.2286 deg Mean motion: 14.82223737 rev/day Decay rate: 2.992e-05 rev/day^2 Epoch rev: 11697 Checksum: 303
Satellite: STUDSAT Catalog number: 36801 Epoch time: 12252.91303087 Element set: 0493 Inclination: 098.0651 deg RA of node: 330.9645 deg Eccentricity: 0.0011099 Arg of perigee: 244.9111 deg Mean anomaly: 115.0953 deg Mean motion: 14.85050287 rev/day Decay rate: 8.074e-05 rev/day^2 Epoch rev: 11694 Checksum: 290
Satellite: FO-69 Catalog number: 37227 Epoch time: 12252.27038377 Element set: 0279 Inclination: 071.9692 deg RA of node: 128.6131 deg Eccentricity: 0.0017021 Arg of perigee: 170.9164 deg Mean anomaly: 189.2291 deg Mean motion: 14.77160508 rev/day Decay rate: 9.43e-06 rev/day^2 Epoch rev: 04836 Checksum: 316
Satellite: FO-70 Catalog number: 37380 Epoch time: 12252.28996895 Element set: 0283 Inclination: 071.9733 deg RA of node: 129.2355 deg Eccentricity: 0.0017579 Arg of perigee: 167.8935 deg Mean anomaly: 192.2653 deg Mean motion: 14.76911609 rev/day Decay rate: 9.32e-06 rev/day^2 Epoch rev: 04825 Checksum: 349
Satellite: ALMASAT-1 Catalog number: 38078 Epoch time: 12252.09177345 Element set: 0548 Inclination: 069.4825 deg RA of node: 129.1306 deg Eccentricity: 0.0746431 Arg of perigee: 144.9588 deg Mean anomaly: 220.3015 deg Mean motion: 14.11853200 rev/day Decay rate: 2.6509e-04 rev/day^2 Epoch rev: 02924 Checksum: 297
Satellite: XATCOBEO Catalog number: 38082 Epoch time: 12252.07965093 Element set: 538 Inclination: 069.4837 deg RA of node: 124.7607 deg Eccentricity: 0.0709198 Arg of perigee: 142.6195 deg Mean anomaly: 222.6420 deg Mean motion: 14.22518401 rev/day Decay rate: 6.4262e-04 rev/day^2 Epoch rev: 2935 Checksum: 306
/EX SB KEPS @ AMSAT $ORB12253.W Orbital Elements 12253.WEATHER
HR AMSAT ORBITAL ELEMENTS FOR WEATHER SATELLITES FROM WA5QGD FORT WORTH,TX September 9, 2012 Send SUBSCRIBE KEPS/UNSUBSCRIBE KEPS to majordomo@amsat.org only BID: ORB12253.W TO ALL RADIO AMATEURS BT
Satellite: NOAA-10 Catalog number: 16969 Epoch time: 12252.91687556 Element set: 0057 Inclination: 098.5777 deg RA of node: 280.4613 deg Eccentricity: 0.0012272 Arg of perigee: 354.1307 deg Mean anomaly: 005.9735 deg Mean motion: 14.27575216 rev/day Decay rate: 1.24e-06 rev/day^2 Epoch rev: 35181 Checksum: 311
